TAURUS DEB, 25161

Orbit data source: Space-Track

TAURUS DEB, 25161 is space debris in LEO originally from a launch on Tue, 10 Feb 1998 UTC launched from the Air Force Western Test Range (AFWTR). Debris objects in space refer to the collection of defunct objects orbiting the Earth. Examples of debris include non-operational satellites, rocket bodies, and fragments generated from explosions, collisions, or faulty payload assembly.

Loading next visibility...
Identifier
25161, 1998-007E
Orbit
LEO
Country
Flag of USUS
Related business
Manufacturer
OSC Chandler
Mission
Spacecraft
Bus & Motor
DPAF, Unknown motor
Mass
Wet unknown, ~144 kg dry
Launch date (UTC)
1998-02-10 (28 years ago)
Launch vehicle
Unknown
Launch site
Air Force Western Test Range (AFWTR)
Object type
Payload
Rocket body
Debris
Shape & HBR
Cyl, 0.5 m
Radar Cross Section
1.025 m², Large (>1 m²)

Expand to show TLE details & history
Last TLE update: 16 hours ago

TLE from 16 hours ago
0 TAURUS DEB
1 25161U 98007E   25348.94306569  .00000381  00000-0  20245-3 0  9991
2 25161 107.9883  58.4648 0057219   9.1347  79.0368 14.28079997447178
Epoch: 2025-12-14T22:38Z
TLE epoch observation values (Epoch: 2025-12-14T22:38:00.875Z)
Latitude
72.06354°
Longitude
-91.05388°
Altitude
802.512 km
Speed
7.463 km/s
True Right ascension
22h 09m 11s
True Declination
71° 57' 47"
Sunlit
Object was in daylight at epoch
Visualization orbit readout
Latitude
Unknown
Longitude
Unknown
Altitude
Unknown
Speed
Unknown
Apparent Right ascension
Unknown
Apparent Declination
Unknown
Sunlit
N/A
Visualization observer readout
Local Sidereal Time
13:26:16
Azimuth
Unknown
Elevation
Unknown
Doppler factor
Unknown
Orbital elements
Apogee altitude
837.02 km
Perigee altitude
754.92 km
Semi-major axis
7,174.107 km
Eccentricity
0.00572
Inclination
107.9883°
RAAN
58.4648°
Arg. of periapsis
9.1347°
True anomaly
79.68138°
Mean anomaly
79.0368°
Eccentric anomaly
79.359°
Mean motion
3.57184 °/min
Orbital period
100.79 mins
BSTAR
0.00020245
Loading maneuver chart data...
Computing Atmospheric mass density...
Loading historical data...
Loading historical data...
Loading historical data...
Loading historical data...
Loading historical data...
Loading historical data...
Loading historical data...
Other satellites on launch #7 in the year 1998 (1998-02-10 UTC)

Documentation

Showing up to 5 results
|